Tracking 30107 objects as of 25-Jan-2025
HD Live streaming from Space Station
objects crossing your sky now

PALAPA B1

Track PALAPA B1 now!
PALAPA B1 is classified as:


NORAD ID: 14134
Int'l Code: 1983-059C
Perigee: 35,804.4 km
Apogee: 35,814.8 km
Inclination: 12.2 °
Period: 1,436.9 minutes
Semi major axis: 42180 km
RCS: 1.2604 m2 (large)
Launch date: June 18, 1983
Source: Indonesia (INDO)
Launch site: AIR FORCE EASTERN TEST RANGE (AFETR)
Your satellite tracking list
Your tracking list is empty




NASA's NSSDC Master Catalog

Two Line Element Set (TLE):
1 14134U 83059C   25025.60591537 -.00000010  00000-0  00000-0 0  9990
2 14134  12.2322 332.9676 0001230 105.5274  77.7960  1.00215280115702
Source of the keplerian elements: AFSPC